TOM1AD LEMG-EGNX

Flight info

Callsign TOM1AD
Flight time N/A
Altitude 38000
Route BLN4L BLN DCT MORAL DCT BEXID DCT VTB DCT RBO DCT OSTIX DCT GASMO DCT DGO DCT BLV DCT BISKA P87 BELEN DCT DIDIG DCT MOKOR UN873 OLEBA DCT ROGPU DCT DIKRO UM184 KOTEM/N0379F240 M184 HEMEL HEME1E
Aircraft B738/M-SDE2E3FGHIRWXY/LB1

Departure

Time 2026-05-04 11:37
Airport Málaga-Costa del Sol Airport (LEMG)

Arrival

Time N/A
Airport East Midlands Airport (EGNX)
Time Latitude Longitude Altitude Speed Heading
2026-05-04 10:56 36.67348 -4.49128 47 ft 0 kts 104°
2026-05-04 11:22 36.67360 -4.49170 44 ft 3 kts 126°
2026-05-04 11:22 36.67373 -4.49187 44 ft 3 kts 157°
2026-05-04 11:23 36.67386 -4.49191 46 ft 2 kts 213°
2026-05-04 11:23 36.67390 -4.49189 46 ft 1 kts 220°
2026-05-04 11:29 36.67388 -4.49191 47 ft 2 kts 220°
2026-05-04 11:29 36.67350 -4.49229 47 ft 9 kts 211°
2026-05-04 11:29 36.67292 -4.49255 46 ft 9 kts 213°
2026-05-04 11:31 36.67696 -4.49894 48 ft 9 kts 336°
2026-05-04 11:33 36.68255 -4.49349 48 ft 13 kts 42°
2026-05-04 11:33 36.68281 -4.49269 48 ft 10 kts 98°
2026-05-04 11:33 36.68246 -4.49179 46 ft 15 kts 118°
2026-05-04 11:34 36.68180 -4.49021 48 ft 24 kts 117°
2026-05-04 11:34 36.68101 -4.48831 48 ft 24 kts 117°
2026-05-04 11:34 36.68025 -4.48653 48 ft 23 kts 117°
2026-05-04 11:34 36.67953 -4.48481 48 ft 22 kts 117°
2026-05-04 11:35 36.67882 -4.48313 48 ft 22 kts 118°
2026-05-04 11:35 36.67818 -4.48162 46 ft 11 kts 117°
2026-05-04 11:35 36.67825 -4.48092 46 ft 9 kts 41°
2026-05-04 11:35 36.67877 -4.48055 49 ft 8 kts 28°
2026-05-04 11:36 36.67929 -4.48024 49 ft 7 kts
2026-05-04 11:36 36.67963 -4.48063 51 ft 6 kts 295°
2026-05-04 11:36 36.67969 -4.48079 51 ft 4 kts 296°
2026-05-04 11:36 36.68078 -4.48337 47 ft 68 kts 298°
2026-05-04 11:37 36.68401 -4.49100 49 ft 128 kts 297°
2026-05-04 11:37 36.68889 -4.50247 218 ft 161 kts 298°
2026-05-04 11:37 36.69432 -4.51496 938 ft 162 kts 296°
2026-05-04 11:37 36.70010 -4.52697 1728 ft 164 kts 304°
2026-05-04 11:38 36.70849 -4.53720 2363 ft 179 kts 315°
2026-05-04 11:38 36.71830 -4.54850 2783 ft 197 kts 313°
2026-05-04 11:38 36.72823 -4.56065 3433 ft 201 kts 313°
2026-05-04 11:38 36.73827 -4.57337 3964 ft 211 kts 313°
2026-05-04 11:39 36.74883 -4.58679 4507 ft 223 kts 318°
2026-05-04 11:39 36.76213 -4.59616 5355 ft 221 kts 340°
2026-05-04 11:40 36.85282 -4.57556 8953 ft 281 kts 36°
2026-05-04 11:41 36.86780 -4.55939 9570 ft 289 kts 39°
2026-05-04 11:41 36.88288 -4.54221 10137 ft 298 kts 39°
2026-05-04 11:41 36.89824 -4.52466 10801 ft 301 kts 39°
2026-05-04 11:41 36.91378 -4.50709 11567 ft 302 kts 38°
2026-05-04 11:42 36.92946 -4.48959 12328 ft 303 kts 38°
2026-05-04 11:42 36.94541 -4.47193 13003 ft 309 kts 38°
2026-05-04 11:42 36.96169 -4.45397 13701 ft 315 kts 38°
2026-05-04 11:42 36.97825 -4.43571 14334 ft 319 kts 37°
2026-05-04 11:43 36.99579 -4.41874 14753 ft 332 kts 30°
2026-05-04 11:43 37.01590 -4.40249 14917 ft 355 kts 28°
2026-05-04 11:43 37.03755 -4.38593 15226 ft 372 kts 27°
2026-05-04 11:43 37.05989 -4.36891 15821 ft 379 kts 27°
2026-05-04 11:44 37.08242 -4.35154 16542 ft 382 kts 28°
2026-05-04 11:44 37.10507 -4.33387 17278 ft 385 kts 28°
2026-05-04 11:44 37.12787 -4.31593 17954 ft 389 kts 28°
2026-05-04 11:44 37.15089 -4.29770 18586 ft 394 kts 28°
2026-05-04 11:45 37.17416 -4.27920 19182 ft 398 kts 28°
2026-05-04 11:45 37.19771 -4.26043 19730 ft 404 kts 28°
2026-05-04 11:45 37.22152 -4.24141 20307 ft 408 kts 28°
2026-05-04 11:45 37.24553 -4.22223 20895 ft 411 kts 28°
2026-05-04 11:46 37.26977 -4.20283 21464 ft 415 kts 28°
2026-05-04 11:46 37.29421 -4.18326 22023 ft 418 kts 28°
2026-05-04 11:46 37.31890 -4.16349 22532 ft 424 kts 28°
2026-05-04 11:46 37.34392 -4.14344 23066 ft 429 kts 28°
2026-05-04 11:47 37.36913 -4.12321 23620 ft 432 kts 28°
2026-05-04 11:47 37.39452 -4.10281 24070 ft 435 kts 27°
2026-05-04 11:47 37.42012 -4.08224 24538 ft 439 kts 27°
2026-05-04 11:47 37.44601 -4.06142 24948 ft 444 kts 27°
2026-05-04 11:48 37.47209 -4.04042 25395 ft 447 kts 27°
2026-05-04 11:48 37.49838 -4.01924 25855 ft 449 kts 27°
2026-05-04 11:48 37.52480 -3.99793 26299 ft 453 kts 27°
2026-05-04 11:48 37.55141 -3.97645 26718 ft 456 kts 27°
2026-05-04 11:49 37.57819 -3.95482 27129 ft 459 kts 27°
2026-05-04 11:49 37.60483 -3.93329 27529 ft 463 kts 27°
2026-05-04 11:49 37.63243 -3.91096 27931 ft 466 kts 27°
2026-05-04 11:49 37.65940 -3.88911 28384 ft 469 kts 27°
2026-05-04 11:50 37.68726 -3.86651 28825 ft 471 kts 27°
2026-05-04 11:50 37.71485 -3.84412 29210 ft 473 kts 27°
2026-05-04 11:50 37.74264 -3.82155 29563 ft 476 kts 27°
2026-05-04 11:50 37.77025 -3.79910 29793 ft 481 kts 27°
2026-05-04 11:51 37.79849 -3.77614 30078 ft 485 kts 27°
2026-05-04 11:51 37.82693 -3.75306 30413 ft 485 kts 25°
2026-05-04 11:51 37.85711 -3.73515 30726 ft 473 kts 10°
2026-05-04 11:51 37.88861 -3.72356 31081 ft 472 kts
2026-05-04 11:52 37.92032 -3.71242 31387 ft 474 kts
2026-05-04 11:52 37.95225 -3.70108 31624 ft 478 kts
2026-05-04 11:52 37.98427 -3.68934 31905 ft 481 kts
2026-05-04 11:52 38.01636 -3.67727 32229 ft 482 kts
2026-05-04 11:53 38.04843 -3.66502 32634 ft 480 kts 10°
2026-05-04 11:53 38.08034 -3.65277 33062 ft 478 kts 10°
2026-05-04 11:53 38.11219 -3.64058 33455 ft 477 kts
2026-05-04 11:53 38.14407 -3.62843 33832 ft 477 kts
2026-05-04 11:55 38.36907 -3.60403 35828 ft 462 kts 356°
2026-05-04 11:55 38.40108 -3.60100 36117 ft 461 kts 356°
2026-05-04 11:56 38.43309 -3.59788 36366 ft 461 kts 356°
2026-05-04 11:56 38.46511 -3.59473 36625 ft 461 kts 356°
2026-05-04 11:56 38.49712 -3.59157 36903 ft 461 kts 356°
2026-05-04 11:56 38.52901 -3.58842 37172 ft 460 kts 356°
2026-05-04 11:57 38.56093 -3.58527 37420 ft 460 kts 356°
2026-05-04 11:57 38.59279 -3.58215 37640 ft 459 kts 356°
2026-05-04 11:57 38.62468 -3.57902 37906 ft 459 kts 356°
2026-05-04 11:58 38.68829 -3.57281 37984 ft 464 kts 356°
2026-05-04 11:58 38.75258 -3.56647 37986 ft 461 kts 356°
2026-05-04 11:59 38.81614 -3.56015 37978 ft 456 kts 356°
2026-05-04 11:59 38.87929 -3.55393 37981 ft 455 kts 356°
2026-05-04 12:00 38.94231 -3.54772 37984 ft 454 kts 356°
2026-05-04 12:00 39.00521 -3.54149 37991 ft 453 kts 356°
2026-05-04 12:01 39.06815 -3.53528 37992 ft 453 kts 356°
2026-05-04 12:02 39.28976 -3.51337 37983 ft 459 kts 356°
2026-05-04 12:03 39.35371 -3.50702 37985 ft 462 kts 357°
2026-05-04 12:03 39.41795 -3.50061 37984 ft 463 kts 357°
2026-05-04 12:04 39.48229 -3.49418 37979 ft 464 kts 357°
2026-05-04 12:04 39.54680 -3.48773 38007 ft 465 kts 357°
2026-05-04 12:05 39.61134 -3.48124 37984 ft 465 kts 357°
2026-05-04 12:05 39.67541 -3.47473 37970 ft 464 kts 357°
2026-05-04 12:06 39.73973 -3.46819 37974 ft 463 kts 357°
2026-05-04 12:06 39.80398 -3.46061 37974 ft 465 kts
2026-05-04 12:07 39.86803 -3.44803 37977 ft 465 kts
2026-05-04 12:07 39.93189 -3.43438 37974 ft 464 kts
2026-05-04 12:08 39.99555 -3.42119 38003 ft 463 kts
2026-05-04 12:08 40.05917 -3.40836 37986 ft 462 kts
2026-05-04 12:09 40.12268 -3.39564 37979 ft 462 kts
2026-05-04 12:09 40.18622 -3.38288 37983 ft 462 kts
2026-05-04 12:10 40.24975 -3.37008 37975 ft 462 kts
2026-05-04 12:10 40.31341 -3.35723 37974 ft 463 kts
2026-05-04 12:11 40.37718 -3.34432 37974 ft 464 kts
2026-05-04 12:11 40.44102 -3.33137 37999 ft 465 kts
2026-05-04 12:12 40.50513 -3.31835 37980 ft 466 kts
2026-05-04 12:12 40.56931 -3.30528 37961 ft 467 kts
2026-05-04 12:14 40.82544 -3.25287 37963 ft 465 kts
2026-05-04 12:15 40.88937 -3.23943 37984 ft 466 kts
2026-05-04 12:15 40.95324 -3.22501 37973 ft 465 kts
2026-05-04 12:16 41.01704 -3.21048 37965 ft 465 kts
2026-05-04 12:16 41.08072 -3.19607 37988 ft 464 kts
2026-05-04 12:17 41.13358 -3.18414 37981 ft 464 kts
2026-05-04 12:17 41.19720 -3.16977 37971 ft 464 kts
2026-05-04 12:18 41.26082 -3.15536 37978 ft 463 kts
2026-05-04 12:18 41.32438 -3.14094 37996 ft 464 kts
2026-05-04 12:19 41.38797 -3.12647 37984 ft 464 kts
2026-05-04 12:19 41.45168 -3.11195 37981 ft 464 kts
2026-05-04 12:20 41.51532 -3.09743 37990 ft 464 kts
2026-05-04 12:20 41.57911 -3.08300 37993 ft 465 kts
2026-05-04 12:21 41.64245 -3.06867 37988 ft 465 kts
2026-05-04 12:21 41.70665 -3.05409 37988 ft 464 kts
2026-05-04 12:22 41.76989 -3.03966 37997 ft 464 kts
2026-05-04 12:22 41.83357 -3.02502 37992 ft 465 kts
2026-05-04 12:23 41.89737 -3.01031 37994 ft 465 kts
2026-05-04 12:23 41.96126 -2.99556 38007 ft 466 kts
2026-05-04 12:24 42.02525 -2.98075 37999 ft 467 kts
2026-05-04 12:24 42.08936 -2.96589 37987 ft 468 kts
2026-05-04 12:25 42.15349 -2.95099 37986 ft 468 kts
2026-05-04 12:25 42.21767 -2.93605 37993 ft 468 kts
2026-05-04 12:26 42.28186 -2.92109 37990 ft 468 kts
2026-05-04 12:26 42.34598 -2.90609 37998 ft 467 kts
2026-05-04 12:27 42.40990 -2.89112 38004 ft 466 kts
2026-05-04 12:27 42.47389 -2.88046 37993 ft 460 kts 355°
2026-05-04 12:28 42.53757 -2.88381 38005 ft 457 kts 353°
2026-05-04 12:28 42.60097 -2.88810 38024 ft 456 kts 353°
2026-05-04 12:29 42.66395 -2.89179 38009 ft 456 kts 354°
2026-05-04 12:29 42.72723 -2.89510 38016 ft 455 kts 354°
2026-05-04 12:30 42.79057 -2.89833 38023 ft 455 kts 354°
2026-05-04 12:30 42.85388 -2.90158 38030 ft 456 kts 354°
2026-05-04 12:31 42.91734 -2.90486 38024 ft 457 kts 354°
2026-05-04 12:31 42.98080 -2.90815 38032 ft 457 kts 354°
2026-05-04 12:32 43.07629 -2.91311 38037 ft 458 kts 354°
2026-05-04 12:33 43.14002 -2.91643 38043 ft 458 kts 354°
2026-05-04 12:33 43.20381 -2.91976 38057 ft 459 kts 354°
2026-05-04 12:34 43.26724 -2.92307 38045 ft 459 kts 354°
2026-05-04 12:34 43.33157 -2.91889 38061 ft 464 kts
2026-05-04 12:35 43.39469 -2.89992 38078 ft 470 kts 10°
2026-05-04 12:35 43.45819 -2.88023 38020 ft 462 kts 10°
2026-05-04 12:36 43.52051 -2.86169 38028 ft 457 kts
2026-05-04 12:36 43.58266 -2.84351 38031 ft 456 kts
2026-05-04 12:37 43.64474 -2.82529 38023 ft 456 kts
2026-05-04 12:37 43.70695 -2.80666 38030 ft 458 kts 11°
2026-05-04 12:38 43.76909 -2.78639 38020 ft 460 kts 11°
2026-05-04 12:38 43.83150 -2.76594 38012 ft 462 kts 11°
2026-05-04 12:39 43.89416 -2.74549 38017 ft 464 kts 11°
2026-05-04 12:39 43.95744 -2.72769 38008 ft 464 kts
2026-05-04 12:40 44.02087 -2.71421 38016 ft 465 kts
2026-05-04 12:40 44.08495 -2.70091 38004 ft 466 kts
2026-05-04 12:41 44.14914 -2.68703 38001 ft 467 kts
2026-05-04 12:41 44.21326 -2.67283 38005 ft 466 kts
2026-05-04 12:42 44.27730 -2.65852 37993 ft 465 kts
2026-05-04 12:42 44.34116 -2.64424 37996 ft 464 kts
2026-05-04 12:43 44.40489 -2.62997 38003 ft 463 kts
2026-05-04 12:43 44.46845 -2.61572 37996 ft 462 kts
2026-05-04 12:44 44.53189 -2.60146 37993 ft 461 kts
2026-05-04 12:44 44.59517 -2.58720 38002 ft 460 kts
2026-05-04 12:45 44.65834 -2.57294 37996 ft 459 kts
2026-05-04 12:45 44.72133 -2.55869 37991 ft 458 kts
2026-05-04 12:46 44.78419 -2.54443 37995 ft 457 kts
2026-05-04 12:46 44.84653 -2.53027 37992 ft 456 kts
2026-05-04 12:47 44.90916 -2.51600 37993 ft 456 kts
2026-05-04 12:47 44.97173 -2.50172 37996 ft 456 kts
2026-05-04 12:48 45.03428 -2.48741 37994 ft 455 kts
2026-05-04 12:48 45.09687 -2.47306 37992 ft 456 kts
2026-05-04 12:49 45.15949 -2.45867 37985 ft 456 kts
2026-05-04 12:49 45.22213 -2.44425 37988 ft 457 kts
2026-05-04 12:50 45.28492 -2.42975 37991 ft 457 kts
2026-05-04 12:50 45.34774 -2.41522 37986 ft 458 kts
2026-05-04 12:51 45.41066 -2.40063 37984 ft 459 kts
2026-05-04 12:51 45.47372 -2.38598 37984 ft 459 kts
2026-05-04 12:52 45.53689 -2.37126 37981 ft 460 kts
2026-05-04 12:52 45.60015 -2.35650 37991 ft 461 kts
2026-05-04 12:53 45.66352 -2.34167 37959 ft 462 kts
2026-05-04 12:53 45.72654 -2.32689 37976 ft 462 kts
2026-05-04 12:54 45.78992 -2.31199 37988 ft 462 kts
2026-05-04 12:54 45.85329 -2.29706 37980 ft 461 kts
2026-05-04 12:55 45.91662 -2.28210 37982 ft 461 kts
2026-05-04 12:55 45.97987 -2.26712 37985 ft 460 kts
2026-05-04 12:56 46.04299 -2.25215 37981 ft 459 kts
2026-05-04 12:56 46.10592 -2.23701 37978 ft 458 kts
2026-05-04 12:57 46.16870 -2.22168 37975 ft 457 kts
2026-05-04 12:57 46.23129 -2.20637 37969 ft 456 kts
2026-05-04 12:58 46.29370 -2.19108 37978 ft 455 kts
2026-05-04 12:58 46.35563 -2.17590 37983 ft 454 kts
2026-05-04 12:59 46.41801 -2.16057 37967 ft 454 kts
2026-05-04 12:59 46.48035 -2.14521 37975 ft 455 kts
2026-05-04 13:00 46.54276 -2.12980 37973 ft 456 kts
2026-05-04 13:00 46.60543 -2.11429 37982 ft 457 kts
2026-05-04 13:01 46.66821 -2.09871 37970 ft 458 kts
2026-05-04 13:01 46.73119 -2.08305 37967 ft 460 kts
2026-05-04 13:02 46.79430 -2.06731 37964 ft 460 kts
2026-05-04 13:02 46.85749 -2.05152 37973 ft 461 kts
2026-05-04 13:03 46.92077 -2.03567 37955 ft 462 kts
2026-05-04 13:03 46.98387 -2.01793 37957 ft 462 kts 17°
2026-05-04 13:04 47.04168 -1.97784 37960 ft 460 kts 37°
2026-05-04 13:04 47.09189 -1.92082 37975 ft 460 kts 39°